Precipitable_Water
0.63 0.61 0.62 0.63 0.62 0.63 0.65 0.64 0.66 0.61 0.61 0.69 0.70 0.65 0.64 0.65 0.54 0.51 0.46 0.65 0.69 0.72 0.72 0.64 0.58 0.52 0.52 0.46 0.42 0.40 0.24 0.21 0.27 0.28 0.32 0.40 0.39 0.44 0.47 0.41 0.40 0.40 0.39 0.41 0.43
0.62 0.62 0.63 0.63 0.65 0.68 0.67 0.65 0.67 0.64 0.65 0.70 0.68 0.69 0.73 0.69 0.50 0.42 0.58 0.68 0.71 0.69 0.54 0.48 0.41 0.47 0.42 0.41 0.41 0.35 0.29 0.30 0.38 0.39 0.36 0.39 0.39 0.38 0.36 0.35 0.35 0.36 0.38 0.39 0.38
0.65 0.65 0.65 0.66 0.69 0.70 0.69 0.69 0.71 0.68 0.68 0.72 0.70 0.68 0.62 0.69 0.41 0.40 0.55 0.60 0.67 0.67 0.57 0.51 0.46 0.43 0.36 0.36 0.35 0.35 0.27 0.34 0.36 0.38 0.38 0.35 0.34 0.36 0.32 0.28 0.32 0.31 0.33 0.34 0.33
0.67 0.66 0.66 0.69 0.70 0.73 0.71 0.70 0.71 0.70 0.72 0.72 0.68 0.65 0.60 0.54 0.30 0.40 0.50 0.51 0.64 0.57 0.49 0.47 0.40 0.33 0.30 0.30 0.36 0.26 0.31 0.34 0.34 0.34 0.33 0.29 0.31 0.28 0.29 0.28 0.32 0.32 0.31 0.30 0.28
0.66 0.65 0.65 0.69 0.70 0.72 0.71 0.70 0.70 0.71 0.73 0.73 0.69 0.64 0.52 0.35 0.33 0.40 0.46 0.45 0.50 0.47 0.36 0.38 0.33 0.34 0.27 0.31 0.30 0.27 0.28 0.30 0.31 0.29 0.28 0.28 0.25 0.24 0.24 0.27 0.29 0.29 0.28 0.27 0.26
0.65 0.65 0.65 0.68 0.68 0.71 0.69 0.69 0.67 0.67 0.67 0.60 0.57 0.55 0.43 0.29 0.36 0.35 0.40 0.34 0.37 0.40 0.32 0.29 0.27 0.32 0.30 0.29 0.26 0.30 0.29 0.27 0.25 0.24 0.25 0.23 0.23 0.25 0.24 0.27 0.25 0.24 0.24 0.24 0.23
0.65 0.64 0.64 0.67 0.66 0.66 0.67 0.68 0.64 0.59 0.58 0.58 0.55 0.46 0.32 0.28 0.32 0.30 0.33 0.30 0.33 0.33 0.28 0.30 0.27 0.25 0.27 0.26 0.33 0.26 0.19 0.20 0.20 0.22 0.23 0.26 0.20 0.20 0.23 0.23 0.21 0.20 0.20 0.20 0.19
0.64 0.63 0.64 0.62 0.63 0.64 0.63 0.58 0.58 0.57 0.55 0.54 0.57 0.41 0.30 0.36 0.34 0.27 0.27 0.27 0.28 0.27 0.26 0.24 0.24 0.17 0.16 0.20 0.21 0.20 0.23 0.16 0.21 0.21 0.21 0.18 0.11 0.17 0.20 0.18 0.17 0.17 0.16 0.16 0.16
0.64 0.62 0.61 0.61 0.59 0.56 0.57 0.56 0.53 0.49 0.48 0.50 0.44 0.38 0.29 0.36 0.29 0.26 0.25 0.23 0.22 0.24 0.23 0.21 0.17 0.13 0.13 0.11 0.11 0.17 0.11 0.14 0.14 0.15 0.13 0.11 0.10 0.15 0.18 0.16 0.15 0.15 0.15 0.15 0.14
0.64 0.60 0.57 0.56 0.54 0.55 0.53 0.53 0.54 0.46 0.44 0.43 0.38 0.34 0.29 0.26 0.27 0.23 0.25 0.23 0.21 0.21 0.19 0.17 0.16 0.12 0.10 0.10 0.08 0.10 0.10 0.10 0.09 0.11 0.10 0.10 0.10 0.14 0.16 0.15 0.14 0.15 0.14 0.13 0.12
0.63 0.59 0.56 0.55 0.54 0.56 0.55 0.50 0.50 0.39 0.34 0.29 0.29 0.28 0.28 0.28 0.28 0.21 0.23 0.21 0.20 0.16 0.13 0.15 0.12 0.10 0.11 0.11 0.11 0.10 0.09 0.08 0.08 0.11 0.10 0.10 0.10 0.12 0.13 0.13 0.13 0.14 0.13 0.12 0.13
0.64 0.57 0.55 0.55 0.53 0.57 0.61 0.48 0.45 0.42 0.30 0.34 0.33 0.31 0.30 0.29 0.22 0.20 0.23 0.19 0.16 0.12 0.15 0.14 0.12 0.13 0.14 0.13 0.11 0.10 0.09 0.09 0.09 0.10 0.10 0.08 0.07 0.09 0.12 0.13 0.14 0.14 0.13 0.13 0.14
0.70 0.62 0.59 0.58 0.57 0.55 0.49 0.48 0.59 0.57 0.35 0.33 0.35 0.30 0.27 0.28 0.23 0.21 0.21 0.19 0.16 0.14 0.14 0.13 0.13 0.15 0.14 0.12 0.10 0.10 0.09 0.09 0.09 0.10 0.09 0.08 0.07 0.10 0.13 0.14 0.15 0.15 0.15 0.16 0.15
0.74 0.67 0.62 0.64 0.54 0.56 0.48 0.58 0.65 0.64 0.33 0.34 0.33 0.31 0.28 0.29 0.24 0.24 0.22 0.20 0.16 0.15 0.16 0.15 0.17 0.14 0.13 0.11 0.11 0.08 0.11 0.10 0.09 0.08 0.06 0.10 0.06 0.10 0.11 0.12 0.13 0.15 0.16 0.16 0.15
0.74 0.71 0.65 0.63 0.54 0.50 0.55 0.61 0.66 0.61 0.21 0.36 0.30 0.34 0.30 0.24 0.23 0.23 0.24 0.19 0.16 0.16 0.16 0.15 0.15 0.13 0.12 0.11 0.12 0.09 0.10 0.09 0.09 0.08 0.09 0.08 0.08 0.09 0.12 0.11 0.13 0.16 0.16 0.15 0.14
0.81 0.76 0.65 0.60 0.59 0.61 0.68 0.67 0.61 0.38 0.23 0.29 0.30 0.29 0.27 0.26 0.23 0.24 0.23 0.21 0.20 0.18 0.18 0.16 0.18 0.15 0.13 0.13 0.13 0.12 0.10 0.10 0.10 0.09 0.06 0.09 0.08 0.09 0.10 0.12 0.14 0.15 0.15 0.14 0.14
0.82 0.74 0.64 0.60 0.53 0.66 0.74 0.61 0.37 0.27 0.34 0.28 0.29 0.29 0.27 0.24 0.24 0.24 0.23 0.20 0.17 0.16 0.15 0.16 0.16 0.16 0.14 0.12 0.12 0.11 0.09 0.07 0.06 0.06 0.06 0.09 0.07 0.07 0.13 0.14 0.13 0.14 0.14 0.14 0.14
0.81 0.76 0.66 0.58 0.61 0.70 0.66 0.45 0.29 0.32 0.31 0.33 0.30 0.30 0.27 0.26 0.25 0.25 0.24 0.21 0.20 0.18 0.15 0.14 0.12 0.14 0.14 0.12 0.10 0.11 0.10 0.07 0.05 0.05 0.05 0.06 0.04 0.07 0.14 0.14 0.15 0.15 0.14 0.14 0.13
0.84 0.73 0.60 0.56 0.59 0.65 0.48 0.34 0.33 0.33 0.34 0.31 0.31 0.28 0.28 0.27 0.25 0.24 0.23 0.22 0.22 0.20 0.15 0.14 0.13 0.16 0.15 0.14 0.12 0.10 0.09 0.10 0.07 0.08 0.06 0.06 0.09 0.12 0.13 0.13 0.13 0.14 0.13 0.13 0.13
0.78 0.71 0.58 0.56 0.55 0.52 0.42 0.35 0.35 0.38 0.36 0.34 0.29 0.29 0.25 0.26 0.25 0.23 0.23 0.24 0.22 0.20 0.19 0.16 0.13 0.15 0.15 0.14 0.14 0.11 0.11 0.08 0.08 0.04 0.03 0.04 0.05 0.05 0.09 0.10 0.12 0.12 0.12 0.12 0.13
0.78 0.62 0.63 0.57 0.59 0.47 0.36 0.35 0.37 0.40 0.37 0.34 0.32 0.29 0.28 0.26 0.24 0.23 0.23 0.24 0.23 0.20 0.19 0.18 0.15 0.13 0.13 0.12 0.11 0.11 0.10 0.09 0.08 0.06 0.04 0.04 0.05 0.09 0.09 0.11 0.11 0.12 0.12 0.12 0.12
0.73 0.59 0.68 0.60 0.46 0.43 0.37 0.38 0.42 0.40 0.39 0.36 0.35 0.33 0.29 0.27 0.24 0.23 0.23 0.23 0.23 0.21 0.18 0.18 0.14 0.11 0.12 0.14 0.13 0.12 0.10 0.09 0.06 0.05 0.07 0.06 0.05 0.11 0.11 0.12 0.12 0.12 0.12 0.13 0.12
0.69 0.66 0.69 0.59 0.43 0.41 0.42 0.44 0.43 0.41 0.39 0.38 0.35 0.33 0.31 0.28 0.24 0.24 0.24 0.25 0.23 0.21 0.19 0.18 0.14 0.10 0.11 0.12 0.12 0.10 0.10 0.09 0.09 0.09 0.07 0.06 0.05 0.11 0.13 0.12 0.11 0.11 0.12 0.12 0.12
0.77 0.61 0.63 0.56 0.54 0.46 0.44 0.44 0.42 0.44 0.41 0.41 0.36 0.35 0.31 0.28 0.26 0.23 0.23 0.24 0.24 0.22 0.23 0.19 0.14 0.11 0.09 0.09 0.10 0.09 0.09 0.10 0.09 0.07 0.06 0.06 0.07 0.08 0.10 0.09 0.10 0.11 0.12 0.12 0.12
0.79 0.70 0.66 0.56 0.54 0.52 0.51 0.46 0.43 0.43 0.44 0.41 0.37 0.35 0.31 0.27 0.25 0.24 0.24 0.24 0.25 0.24 0.24 0.18 0.13 0.12 0.12 0.11 0.11 0.10 0.09 0.09 0.09 0.09 0.07 0.07 0.07 0.09 0.09 0.09 0.10 0.11 0.12 0.12 0.11
0.77 0.74 0.70 0.66 0.61 0.55 0.50 0.47 0.45 0.46 0.42 0.39 0.38 0.35 0.32 0.27 0.26 0.24 0.23 0.23 0.21 0.23 0.21 0.20 0.14 0.14 0.12 0.11 0.10 0.09 0.09 0.10 0.09 0.09 0.08 0.08 0.07 0.09 0.10 0.10 0.10 0.11 0.12 0.11 0.11
0.88 0.83 0.69 0.62 0.61 0.57 0.53 0.52 0.49 0.49 0.47 0.45 0.39 0.36 0.32 0.28 0.28 0.27 0.27 0.25 0.23 0.20 0.19 0.17 0.15 0.12 0.10 0.10 0.10 0.08 0.08 0.09 0.09 0.09 0.09 0.06 0.07 0.09 0.09 0.08 0.10 0.12 0.12 0.11 0.11
Wind_Speed
14 15 14 13 13 13 12 12 11 11 8 6 6 6 8 9 11 11 12 12 13 13 12 11 9 8 8 7 7 6 6 8 10 10 10 13 11 12 10 10 12 14 16 18 20
14 14 14 14 13 13 12 11 11 10 8 6 5 6 9 10 8 13 14 15 14 13 11 10 10 9 7 7 7 6 7 8 10 11 10 12 13 15 15 15 15 16 18 20 22
14 14 14 14 14 13 12 11 11 10 8 6 5 9 10 10 8 12 16 15 14 14 10 9 8 8 8 8 9 9 9 10 12 14 13 13 15 18 16 17 18 19 20 22 24
14 14 14 14 13 13 12 11 10 10 8 6 7 9 11 9 8 13 16 14 14 12 10 10 10 10 10 10 11 9 11 11 14 15 15 16 16 17 18 19 19 19 21 23 25
15 15 14 13 12 12 11 11 11 10 9 8 9 10 9 9 9 13 14 13 10 11 12 12 12 12 12 12 12 11 11 12 12 13 14 15 16 17 17 19 21 22 23 25 27
15 15 15 13 11 11 11 11 12 10 9 9 10 9 9 8 10 13 11 11 12 12 14 14 13 14 13 13 13 12 11 12 14 15 16 16 18 20 20 21 22 23 25 27 28
16 15 14 12 11 11 11 12 11 9 10 10 10 9 9 7 9 12 11 12 13 14 14 15 15 14 14 13 14 12 14 15 17 16 16 15 19 19 21 22 23 24 26 29 31
15 15 13 12 11 11 12 11 11 11 10 10 10 9 7 7 10 14 13 13 14 15 15 16 15 13 14 15 14 14 14 16 18 18 19 19 22 22 23 24 25 27 29 31 34
15 14 13 12 11 12 12 12 12 11 10 11 10 8 7 8 11 15 14 14 16 15 16 15 14 14 16 15 15 16 17 17 19 20 22 22 24 25 27 27 27 29 32 34 36
14 14 14 12 12 14 12 11 13 11 12 10 9 7 8 10 13 17 14 16 15 16 16 16 15 14 16 16 15 18 19 20 21 23 25 27 28 27 28 27 29 31 33 35 37
14 13 14 13 13 15 14 13 12 11 12 9 9 5 9 13 12 17 16 17 16 16 15 16 15 14 17 18 19 19 20 22 23 23 26 25 26 27 27 28 29 32 33 35 37
14 14 14 14 14 15 13 11 10 9 10 10 7 7 10 13 14 18 18 15 16 16 17 17 13 17 19 19 20 21 22 24 25 24 28 30 31 27 27 29 30 31 34 36 39
15 15 15 15 13 14 12 11 10 10 10 10 8 10 12 14 14 18 18 17 16 16 17 14 16 19 20 20 21 22 22 23 25 30 30 30 29 25 26 27 29 33 35 37 40
16 17 17 15 13 13 12 11 11 12 10 9 9 11 15 14 13 17 19 17 16 16 16 15 20 21 19 20 22 23 23 26 29 29 27 26 29 28 26 29 31 34 36 39 41
18 17 17 15 13 13 13 12 13 12 11 10 10 13 16 15 17 18 20 18 16 17 18 18 20 21 20 21 22 23 28 30 30 28 29 27 27 31 26 31 33 35 37 39 42
19 17 16 14 13 13 13 12 12 11 11 11 12 15 15 17 16 19 18 18 18 18 19 19 20 20 22 24 24 26 29 31 24 23 26 25 25 31 29 31 33 36 37 40 42
19 16 15 14 14 14 12 12 13 9 11 12 14 16 15 17 17 18 18 19 19 19 20 21 20 21 22 25 24 27 27 25 25 25 26 26 30 30 29 31 31 34 37 40 40
19 18 16 15 15 14 13 13 12 12 14 15 15 17 16 17 18 19 18 20 20 19 21 21 24 21 24 23 24 25 24 21 24 26 30 34 28 27 29 31 33 35 37 38 37
20 18 17 17 15 14 14 13 14 13 13 15 16 16 16 18 18 19 20 18 19 21 19 22 23 23 23 24 24 25 23 24 25 27 28 27 28 31 31 34 35 36 36 35 34
20 19 17 17 16 15 15 15 14 14 16 16 16 17 17 18 19 19 19 19 19 20 21 22 26 23 23 24 25 23 24 24 26 25 29 29 30 30 34 35 35 35 35 34 32
21 19 17 18 17 16 16 15 15 16 16 16 17 18 18 19 19 21 20 21 19 20 22 22 21 25 24 24 23 24 25 25 25 24 25 30 30 30 33 32 34 34 33 31 32
22 21 20 19 18 17 16 15 16 16 18 19 20 19 19 19 21 21 19 20 19 20 22 22 22 24 25 25 24 25 24 25 25 28 27 29 37 26 31 33 33 33 32 30 32
24 24 22 20 20 18 18 18 18 17 18 20 20 20 21 20 21 20 19 19 19 20 21 22 23 26 24 24 26 25 26 27 28 29 30 28 31 32 35 35 33 33 31 31 33
25 23 23 21 21 18 19 20 20 20 20 20 20 20 21 22 21 20 20 20 20 22 22 22 23 23 23 24 26 27 28 27 28 29 32 31 38 37 34 34 34 33 31 31 31
28 27 25 24 24 22 21 21 21 22 22 21 22 22 21 21 21 22 20 20 22 23 22 22 25 26 28 29 30 29 32 30 30 31 29 37 35 33 34 34 33 31 31 29 29
30 28 29 28 26 24 24 23 23 22 22 24 24 22 22 22 22 21 20 21 22 23 22 24 25 27 29 31 31 33 32 30 30 30 30 32 35 31 33 33 33 31 29 27 29
32 32 30 29 27 25 26 25 24 22 24 24 23 21 22 22 22 22 22 23 23 22 22 23 24 26 27 28 32 32 26 26 27 26 28 30 32 33 33 34 33 29 24 27 30
Wind_Direction
358 359 358 359 355 351 348 348 347 347 346 349 352 1 2 358 8 11 5 347 340 339 338 337 336 331 325 317 310 299 294 291 299 296 282 296 286 299 291 293 302 287 288 288 291
1 2 2 359 354 351 350 350 350 350 349 348 353 351 344 344 350 8 352 346 346 344 340 339 341 339 334 326 318 308 300 299 297 292 287 298 295 288 287 291 293 290 291 292 293
3 2 360 358 357 356 356 354 353 354 353 349 346 343 341 338 344 345 347 345 344 342 336 335 336 336 334 326 318 313 299 289 301 299 287 288 297 295 284 295 291 291 293 295 295
0 359 359 358 359 360 1 1 2 360 354 343 336 337 340 336 334 337 342 345 346 352 358 349 335 333 328 325 318 309 313 300 298 304 297 293 288 292 299 290 292 294 294 297 298
357 356 355 356 358 3 4 3 359 355 351 339 328 332 335 345 342 338 341 349 353 353 354 341 341 331 328 321 317 311 303 308 304 309 304 301 298 291 296 292 294 296 297 299 300
353 351 351 351 352 353 357 356 353 351 352 348 339 331 335 341 335 340 342 347 349 344 342 339 327 321 319 319 318 312 308 304 305 304 297 296 296 297 296 293 296 298 300 302 303
349 350 351 352 353 353 350 350 351 354 351 345 343 348 2 344 349 350 342 341 338 338 332 331 328 325 318 317 313 306 312 309 305 303 302 299 302 298 296 294 297 300 302 304 306
349 351 351 351 352 350 348 347 347 340 338 340 339 341 342 343 341 348 341 330 333 331 330 329 327 327 323 315 311 306 306 304 304 305 301 302 298 295 296 297 299 301 304 305 307
345 348 348 347 347 345 342 341 340 337 338 335 339 339 340 340 342 341 336 332 328 330 331 328 330 330 325 318 316 314 305 308 305 308 303 302 300 296 296 297 300 302 304 304 304
339 340 341 334 336 335 335 335 341 336 330 330 333 335 343 332 333 338 335 333 326 327 328 333 329 326 329 324 309 310 311 309 308 307 305 301 301 296 296 298 299 303 305 304 305
337 335 336 332 330 332 327 322 328 331 349 340 328 334 332 328 333 339 333 329 333 334 330 331 334 329 327 324 315 309 306 303 303 305 304 301 302 296 297 300 303 304 305 304 305
336 334 333 330 327 331 329 330 328 323 336 337 334 333 329 328 329 336 336 333 337 332 325 329 326 320 319 322 319 313 307 305 304 307 309 303 300 296 298 301 304 305 306 306 306
334 332 330 327 325 331 332 328 326 326 328 323 324 324 326 329 329 330 335 328 333 334 334 326 318 317 317 323 320 316 313 312 307 311 306 308 305 300 302 304 306 307 306 307 308
329 328 327 324 321 324 327 324 323 321 322 314 312 321 325 324 325 329 331 324 326 326 327 328 323 321 322 320 320 315 316 312 310 314 308 318 308 306 299 306 308 307 308 309 310
326 323 324 325 317 320 319 314 317 320 322 314 314 316 325 327 317 325 331 328 324 325 319 317 322 323 320 316 319 311 315 310 306 306 311 311 309 312 306 307 305 306 308 310 311
326 323 322 318 318 317 317 313 316 321 303 312 311 317 317 324 320 319 326 326 321 319 325 319 320 320 317 316 314 315 316 316 314 312 314 314 307 310 307 306 306 307 309 311 312
325 322 321 316 312 314 314 315 318 306 309 308 310 314 315 318 317 321 322 325 321 318 320 317 317 316 318 320 319 325 324 321 320 319 310 314 314 308 309 309 308 310 311 312 313
319 316 315 316 311 309 309 313 303 305 304 304 307 308 310 314 313 318 315 317 319 318 316 318 315 315 317 319 317 319 323 320 311 315 312 314 309 313 311 310 311 311 312 313 314
312 310 306 312 309 305 308 307 298 301 304 306 307 308 308 308 312 315 316 312 312 317 316 318 311 315 316 317 318 319 322 318 316 313 318 314 314 316 314 312 313 313 314 315 315
306 304 298 306 303 303 305 298 296 301 304 304 300 306 305 307 309 312 309 308 309 313 317 314 314 312 313 318 316 320 318 322 321 319 316 316 313 313 316 314 316 316 314 315 315
300 300 295 301 299 302 296 295 299 300 301 302 303 302 305 306 307 308 309 309 306 308 314 314 315 316 317 313 313 318 319 318 317 316 313 317 315 314 314 316 316 314 315 315 316
294 293 292 293 297 297 292 294 298 296 298 300 303 303 301 305 306 305 302 307 305 307 310 311 312 312 313 317 316 316 315 316 318 315 312 313 314 319 317 317 317 316 316 316 318
288 286 288 287 287 289 288 295 295 292 295 300 302 302 303 303 306 307 306 305 304 305 308 311 312 316 314 316 318 317 313 311 312 314 308 313 314 317 319 318 318 317 317 317 320
283 283 284 286 285 282 286 288 288 291 295 298 300 301 303 302 303 305 305 302 302 305 308 310 308 305 307 311 313 313 312 310 310 313 312 306 311 315 318 318 318 318 317 318 320
275 276 277 279 281 282 283 283 286 287 292 293 298 293 297 300 302 301 302 303 303 302 305 309 309 308 307 308 309 309 308 308 305 306 308 311 311 316 318 318 318 318 319 320 322
272 273 275 274 276 278 280 280 279 286 289 292 292 291 294 297 297 300 300 300 303 301 303 306 310 313 311 308 308 308 309 309 307 307 310 313 315 318 317 319 319 319 319 321 323
270 271 271 271 270 273 277 279 279 283 290 293 290 294 293 296 301 301 303 304 303 302 300 306 310 316 313 317 319 317 317 317 317 316 316 316 316 320 320 321 320 318 318 321 324